When you browse on this site, cookies collect data to enhance your experience and personalize the content and advertising you see.
Visit our Privacy Policy to learn more. By continuing to use the site, you agree to this use of cookies and data.
  • In Romania
  • List of Countries
  • For 7 days
  • Water Temperature
  • Weather Map
  • Weather Widgets
  • user-avatar
    Login

    Hourly Weather Świebodzin

    Today, 29 January, Wednesday

    Time Temperature Precipitation Wind Pressure Humidity
    00:00 0°C° 0 mm 7 mps 739 mmHg 71%
    01:00 0°C° 0 mm 7 mps 739 mmHg 76%
    02:00 -1°C° 0.4 mm 8 mps 739 mmHg 78%
    03:00 -1°C° 0.4 mm 8 mps 739 mmHg 80%
    04:00 -1°C° 0.4 mm 9 mps 739 mmHg 82%
    05:00 0°C° 0.1 mm 8 mps 740 mmHg 81%
    06:00 0°C° 0.1 mm 8 mps 740 mmHg 80%
    07:00 0°C° 0.1 mm 7 mps 741 mmHg 79%
    08:00 0°C° 0 mm 7 mps 741 mmHg 78%
    09:00 0°C° 0 mm 7 mps 741 mmHg 78%
    10:00 0°C° 0 mm 7 mps 742 mmHg 77%
    11:00 0°C° 0 mm 7 mps 742 mmHg 80%
    12:00 0°C° 0 mm 7 mps 743 mmHg 84%
    13:00 0°C° 0 mm 7 mps 744 mmHg 87%
    14:00 +2°C° 0.1 mm 7 mps 744 mmHg 83%
    15:00 +2°C° 0.1 mm 7 mps 744 mmHg 78%
    16:00 +2°C° 0.1 mm 7 mps 744 mmHg 74%
    17:00 +2°C° 0 mm 7 mps 744 mmHg 75%
    18:00 +2°C° 0 mm 7 mps 745 mmHg 76%
    19:00 +2°C° 0 mm 6 mps 745 mmHg 77%
    20:00 +1°C° 0.2 mm 6 mps 746 mmHg 81%
    21:00 +1°C° 0.2 mm 6 mps 746 mmHg 85%
    22:00 +1°C° 0.2 mm 6 mps 746 mmHg 89%
    23:00 +1°C° 0.1 mm 6 mps 747 mmHg 86%

    Tomorrow, 30 January, Thursday

    Time Temperature Precipitation Wind Pressure Humidity
    00:00 +2°C° 0.1 mm 6 mps 748 mmHg 84%
    01:00 +2°C° 0.1 mm 6 mps 748 mmHg 81%
    02:00 +2°C° 0 mm 6 mps 749 mmHg 81%
    03:00 +1°C° 0 mm 6 mps 749 mmHg 82%
    04:00 +1°C° 0 mm 6 mps 749 mmHg 82%
    05:00 +1°C° 0 mm 5 mps 749 mmHg 82%
    06:00 0°C° 0 mm 5 mps 749 mmHg 82%
    07:00 0°C° 0 mm 5 mps 749 mmHg 82%
    08:00 -1°C° 0.2 mm 6 mps 748 mmHg 86%
    09:00 +1°C° 0.2 mm 6 mps 748 mmHg 90%
    10:00 +1°C° 0.2 mm 6 mps 747 mmHg 94%
    11:00 +2°C° 0.2 mm 6 mps 747 mmHg 92%
    12:00 +3°C° 0.2 mm 7 mps 747 mmHg 89%
    13:00 +3°C° 0.2 mm 7 mps 746 mmHg 86%
    14:00 +3°C° 0.4 mm 7 mps 746 mmHg 87%
    15:00 +3°C° 0.4 mm 6 mps 746 mmHg 87%
    16:00 +4°C° 0.4 mm 6 mps 746 mmHg 87%
    17:00 +4°C° 0.1 mm 6 mps 746 mmHg 85%
    18:00 +5°C° 0.1 mm 5 mps 746 mmHg 84%
    19:00 +5°C° 0.1 mm 5 mps 746 mmHg 82%
    20:00 +3°C° 0 mm 5 mps 746 mmHg 83%
    21:00 +4°C° 0 mm 4 mps 745 mmHg 85%
    22:00 +3°C° 0 mm 4 mps 745 mmHg 86%
    23:00 +4°C° 0.3 mm 4 mps 744 mmHg 86%

    Day after tomorrow, 31 January, Friday

    Time Temperature Precipitation Wind Pressure Humidity
    00:00 +3°C° 0.3 mm 5 mps 743 mmHg 86%
    01:00 +3°C° 0.3 mm 5 mps 743 mmHg 86%
    02:00 +4°C° 0.6 mm 6 mps 742 mmHg 87%
    03:00 +5°C° 0.6 mm 6 mps 741 mmHg 87%
    04:00 +6°C° 0.6 mm 7 mps 740 mmHg 87%
    05:00 +6°C° 0.3 mm 7 mps 740 mmHg 85%
    06:00 +8°C° 0.3 mm 7 mps 741 mmHg 83%
    07:00 +7°C° 0.3 mm 8 mps 741 mmHg 81%
    08:00 +7°C° 0 mm 8 mps 742 mmHg 79%
    09:00 +6°C° 0 mm 8 mps 743 mmHg 76%
    10:00 +6°C° 0 mm 8 mps 744 mmHg 74%
    11:00 +6°C° 0 mm 7 mps 745 mmHg 73%
    12:00 +6°C° 0 mm 7 mps 746 mmHg 72%
    13:00 +6°C° 0 mm 7 mps 747 mmHg 71%
    14:00 +7°C° 0 mm 6 mps 747 mmHg 72%
    15:00 +7°C° 0 mm 5 mps 747 mmHg 73%
    16:00 +6°C° 0 mm 4 mps 748 mmHg 74%
    17:00 +6°C° 0 mm 4 mps 748 mmHg 77%
    18:00 +7°C° 0 mm 3 mps 749 mmHg 80%
    19:00 +5°C° 0 mm 3 mps 749 mmHg 83%
    20:00 +5°C° 0 mm 3 mps 749 mmHg 85%
    21:00 +5°C° 0 mm 3 mps 749 mmHg 87%
    22:00 +5°C° 0 mm 3 mps 749 mmHg 89%
    23:00 +5°C° 0 mm 3 mps 749 mmHg 89%

    1 February, Saturday

    Time Temperature Precipitation Wind Pressure Humidity
    00:00 +6°C° 0 mm 4 mps 748 mmHg 89%
    01:00 +6°C° 0 mm 4 mps 748 mmHg 88%
    02:00 +6°C° 0 mm 4 mps 748 mmHg 88%
    03:00 +7°C° 0 mm 4 mps 747 mmHg 87%
    04:00 +7°C° 0 mm 4 mps 747 mmHg 87%
    05:00 +7°C° 0 mm 4 mps 747 mmHg 88%
    06:00 +7°C° 0 mm 4 mps 746 mmHg 89%
    07:00 +7°C° 0 mm 4 mps 746 mmHg 91%
    08:00 +8°C° 0 mm 4 mps 746 mmHg 89%
    09:00 +8°C° 0 mm 4 mps 746 mmHg 88%
    10:00 +9°C° 0 mm 5 mps 745 mmHg 86%
    11:00 +9°C° 0 mm 5 mps 745 mmHg 85%
    12:00 +10°C° 0 mm 5 mps 744 mmHg 84%
    13:00 +10°C° 0 mm 6 mps 744 mmHg 83%
    14:00 +10°C° 0.1 mm 6 mps 743 mmHg 83%
    15:00 +10°C° 0.1 mm 5 mps 743 mmHg 84%
    16:00 +10°C° 0.1 mm 5 mps 742 mmHg 85%
    17:00 +10°C° 0.7 mm 5 mps 742 mmHg 87%
    18:00 +10°C° 0.7 mm 5 mps 742 mmHg 89%
    19:00 +10°C° 0.7 mm 5 mps 742 mmHg 92%
    20:00 +9°C° 0.6 mm 5 mps 743 mmHg 88%
    21:00 +9°C° 0.6 mm 5 mps 743 mmHg 85%
    22:00 +9°C° 0.6 mm 5 mps 744 mmHg 82%
    23:00 +8°C° 0.2 mm 6 mps 745 mmHg 78%

    2 February, Sunday

    Time Temperature Precipitation Wind Pressure Humidity
    00:00 +6°C° 0.2 mm 7 mps 746 mmHg 74%
    01:00 +4°C° 0.2 mm 7 mps 747 mmHg 71%
    02:00 +4°C° 0 mm 7 mps 747 mmHg 72%
    03:00 +4°C° 0 mm 7 mps 747 mmHg 73%
    04:00 +4°C° 0 mm 7 mps 748 mmHg 74%
    05:00 +4°C° 0 mm 7 mps 748 mmHg 75%
    06:00 +4°C° 0 mm 8 mps 748 mmHg 76%
    07:00 +4°C° 0 mm 8 mps 748 mmHg 77%
    08:00 +3°C° 0.2 mm 9 mps 748 mmHg 79%
    09:00 +3°C° 0.2 mm 9 mps 749 mmHg 80%
    10:00 +3°C° 0.2 mm 9 mps 750 mmHg 82%
    11:00 +5°C° 0.2 mm 8 mps 751 mmHg 80%
    12:00 +5°C° 0.2 mm 8 mps 751 mmHg 77%
    13:00 +5°C° 0.2 mm 8 mps 752 mmHg 75%
    14:00 +5°C° 0.1 mm 7 mps 752 mmHg 75%
    15:00 +4°C° 0.1 mm 7 mps 752 mmHg 76%
    16:00 +4°C° 0.1 mm 6 mps 753 mmHg 77%
    17:00 +4°C° 0 mm 6 mps 753 mmHg 76%
    18:00 +5°C° 0 mm 5 mps 753 mmHg 76%
    19:00 +5°C° 0 mm 5 mps 754 mmHg 76%
    20:00 +4°C° 0 mm 4 mps 753 mmHg 77%
    21:00 +4°C° 0 mm 4 mps 753 mmHg 79%
    22:00 +4°C° 0 mm 4 mps 753 mmHg 80%
    23:00 +4°C° 0.1 mm 4 mps 753 mmHg 84%

    3 February, Monday

    Time Temperature Precipitation Wind Pressure Humidity
    00:00 +4°C° 0.1 mm 4 mps 752 mmHg 87%
    01:00 +4°C° 0.1 mm 4 mps 752 mmHg 90%
    02:00 +4°C° 0.2 mm 4 mps 752 mmHg 90%
    03:00 +5°C° 0.2 mm 4 mps 752 mmHg 91%
    04:00 +6°C° 0.2 mm 4 mps 751 mmHg 92%
    05:00 +6°C° 0.1 mm 4 mps 752 mmHg 91%
    06:00 +6°C° 0.1 mm 4 mps 752 mmHg 90%
    07:00 +7°C° 0.1 mm 4 mps 752 mmHg 90%
    08:00 +7°C° 0 mm 4 mps 752 mmHg 87%
    09:00 +7°C° 0 mm 5 mps 752 mmHg 85%
    10:00 +7°C° 0 mm 5 mps 753 mmHg 83%
    11:00 +7°C° 0 mm 4 mps 753 mmHg 82%
    12:00 +8°C° 0 mm 4 mps 753 mmHg 81%
    13:00 +8°C° 0 mm 4 mps 753 mmHg 80%
    14:00 +9°C° 0.2 mm 3 mps 752 mmHg 83%
    15:00 +8°C° 0.2 mm 3 mps 752 mmHg 86%
    16:00 +8°C° 0.2 mm 2 mps 751 mmHg 89%
    17:00 +8°C° 0.8 mm 3 mps 751 mmHg 90%
    18:00 +7°C° 0.8 mm 3 mps 750 mmHg 92%
    19:00 +7°C° 0.8 mm 3 mps 750 mmHg 93%
    20:00 +7°C° 0.2 mm 4 mps 750 mmHg 92%
    21:00 +8°C° 0.2 mm 4 mps 749 mmHg 91%
    22:00 +10°C° 0.2 mm 4 mps 749 mmHg 90%
    23:00 +8°C° 0.1 mm 4 mps 749 mmHg 92%
    Show more